Weather Roundup
Issued by NWS Chicago, IL

Home | Current Version | Previous Version | Graphics & Text | Print | Product List | Glossary On
Versions: 1 2 3 4 5 6 7 8 9 10 11 12 13 14 15 16 17 18 19 20 21 22 23 24 25 26 27 28 29 30 31 32 33 34 35 36 37 38 39 40 41 42 43 44 45 46 47 48 49 50
000
NZUS59 KLOT 270704
HRRLOT

CHICAGO AREA WEATHER ROUNDUP
NATIONAL WEATHER SERVICE CHICAGO/ROMEOVILLE IL
200 AM CDT SAT MAY 27 2017

NOTE: "FAIR" INDICATES FEW OR NO CLOUDS BELOW 12,000 FEET WITH NO
SIGNIFICANT WEATHER AND/OR OBSTRUCTIONS TO VISIBILITY.

* THESE STATIONS ARE NOT UNDER NWS QUALITY CONTROL. THEY ALSO MAY NOT
  REPORT WEATHER SUCH AS PRECIPITATION OR FOG.

ILZ005-006-012>014-019>023-270800-
NORTHEAST ILLINOIS

CITY           SKY/WX    TMP DP  RH WIND       PRES   REMARKS
OHARE          MOCLDY    56  51  84 NE6       29.86S
MIDWAY         CLOUDY    57  54  89 N8        29.86R
AURORA         PTCLDY    55  54  96 CALM      29.87R FOG
LANSING*       MOCLDY    56  56 100 N5        29.86R
JOLIET*        CLOUDY    59  57  93 N3        29.86R
WAUKEGAN       PTCLDY    50  49  96 NE3       29.86F FOG
DUPAGE AIRPORT PTCLDY    53  53 100 N5        29.86S FOG
WHEELING       CLEAR     52  52 100 CALM      29.88S
KANKAKEE*      CLOUDY    59  58  97 CALM      29.84S FOG
MORRIS*        PTCLDY    58  56  94 CALM      29.85R FOG
LEWIS AIRPORT* CLOUDY    57  57 100 N5        29.86R FOG
$$

WIZ051-052-058>065-066-070>072-270800-
SOUTHEAST WISCONSIN

CITY           SKY/WX    TMP DP  RH WIND       PRES   REMARKS
MILWAUKEE      PTCLDY    51  50  96 CALM      29.88S
KENOSHA*       PTCLDY    50  50 100 NE3       29.88S FOG
RACINE*        CLEAR     49  47  93 CALM      29.90R
$$

INZ001>003-010>013-019-020-270800-
NORTHWEST INDIANA

CITY           SKY/WX    TMP DP  RH WIND       PRES   REMARKS
GARY*          HVY RAIN  56  55  95 N6        29.86R
MICHIGAN CITY* NOT AVBL
RENSSELAER*    NOT AVBL
VALPARAISO     MOCLDY    61  59  93 NE6       29.84S
$$

LMZ740>746-270800-
SOUTHERN LAKE MICHIGAN

STATION/POSITION TIME  SKY/WX   TEMP WIND        PRES    VSBY
                                AIR  DIR/SP/G
                 (UTC)          (F)  (DEG/KT/KT) (MB)    (MI)
HARRISON CRIB    0640            53   10/ 10/ 10   N/A
BURNHAM HARBOR   0700            54  340/  8/ 11   N/A
CALUMET HARBOR   0630            54  350/  5/  8 1010.7R
BURNS HARBOR     0640            55   50/  6/  8 1011.2S
MICHIGAN CITY    0640            55   20/ 11/ 12   N/A
$$

ABBREVIATIONS USED IN REMARKS
   TC - TEMPERATURE IN CELSIUS
  WCI - WIND CHILL INDEX
   HX - HEAT INDEX
  VSB - VISIBILITY
$$



USA.gov is the U.S. government's official web portal to all federal, state and local government web resources and services.